DECAYED

FENGYUN 1C DEB, 31486 (Decayed)

Orbit data source: Space-Track

FENGYUN 1C DEB, 31486 was space debris in SSO originally from a launch on Mon, 10 May 1999 UTC launched from the Taiyaun Space Center, China (TSC). Fengyun 1C debris stems from the Chinese weather satellite Fengyun-1C, which was intentionally destroyed by a Chinese anti-satellite missile in 2007. This event dramatically increased the amount of space debris, with thousands of trackable fragments posing hazards to satellites and human spaceflight. The Fengyun 1C debris cloud has become a focal point in discussions about space sustainability and the need for international regulations to prevent the creation of new debris.

Not visible in the next 10 days
Identifier
31486, 1999-025BWA
Orbit
Decayed
Country
Flag of CNCN / PRC
Related business
Manufacturer
Unknown
Mission
Decayed spacecraft
Bus & Motor
Unknown
Mass
Unknown
Launch date (UTC)
1999-05-10 (27 years ago)
Launch vehicle
Unknown
Launch site
Taiyaun Space Center, China (TSC)
Object type
Payload
Rocket body
Debris
Shape & HBR
Unknown shape, 0.1 m
Radar Cross Section
Medium (>0.1 m² and <1 m²)

Expand to show TLE details & history
Last TLE update: 7 months ago

TLE from 7 months ago
0 FENGYUN 1C DEB
1 31486U 99025BWA 25318.18591326  .01375576  00000-0  28518-1 0  9990
2 31486 102.2338 221.7235 0014807  94.4480 265.8441 15.42838759965376
Epoch: 2025-11-14T04:27Z
TLE epoch observation values (Epoch: 2025-11-14T04:27:42.905Z)
Latitude
-0.00007°
Longitude
101.26171°
Altitude
441.42 km
Speed
7.647 km/s
True Right ascension
14h 46m 53s
True Declination
0° 00' 00"
Sunlit
Object was in daylight at epoch
Visualization orbit readout
Latitude
Unknown
Longitude
Unknown
Altitude
Unknown
Speed
Unknown
Apparent Right ascension
Unknown
Apparent Declination
Unknown
Sunlit
N/A
Visualization observer readout
Local Sidereal Time
02:56:17
Azimuth
Unknown
Elevation
Unknown
Doppler factor
Unknown
Orbital elements
Apogee altitude
445.033 km
Perigee altitude
424.857 km
Semi-major axis
6,813.082 km
Eccentricity
0.00148
Inclination
102.2338°
RAAN
221.7235°
Arg. of periapsis
94.448°
True anomaly
265.67489°
Mean anomaly
265.8441°
Eccentric anomaly
265.75949°
Mean motion
3.85947 °/min
Orbital period
93.28 mins
BSTAR
0.028518
Loading maneuver chart data...
Computing Atmospheric mass density...

Documentation

Showing up to 5 results
|